Hourly Weather Barwice

Today, 19 June, Saturday

Time Temperature Precipitation Wind Pressure Humidity
00:00 +20°C° 0 mm 3 mps 751 mmHg 72%
01:00 +20°C° 0 mm 3 mps 751 mmHg 75%
02:00 +20°C° 0 mm 3 mps 751 mmHg 76%
03:00 +20°C° 0 mm 3 mps 751 mmHg 77%
04:00 +19°C° 0 mm 3 mps 751 mmHg 78%
05:00 +21°C° 0 mm 3 mps 751 mmHg 73%
06:00 +23°C° 0 mm 4 mps 751 mmHg 68%
07:00 +26°C° 0 mm 4 mps 751 mmHg 63%
08:00 +27°C° 0 mm 4 mps 751 mmHg 57%
09:00 +29°C° 0 mm 4 mps 751 mmHg 51%
10:00 +32°C° 0 mm 4 mps 751 mmHg 45%
11:00 +33°C° 0 mm 4 mps 750 mmHg 41%
12:00 +34°C° 0 mm 4 mps 750 mmHg 38%
13:00 +34°C° 0 mm 4 mps 750 mmHg 34%
14:00 +34°C° 0 mm 3 mps 750 mmHg 35%
15:00 +34°C° 0 mm 3 mps 750 mmHg 35%
16:00 +34°C° 0 mm 3 mps 749 mmHg 35%
17:00 +33°C° 0 mm 3 mps 749 mmHg 44%
18:00 +30°C° 0 mm 3 mps 749 mmHg 52%
19:00 +28°C° 0 mm 3 mps 749 mmHg 61%
20:00 +26°C° 0 mm 2 mps 749 mmHg 66%
21:00 +25°C° 0 mm 2 mps 750 mmHg 72%
22:00 +23°C° 0 mm 1 mps 750 mmHg 78%
23:00 +22°C° 0.1 mm 1 mps 750 mmHg 80%

Tomorrow, 20 June, Sunday

Time Temperature Precipitation Wind Pressure Humidity
00:00 +22°C° 0.1 mm 1 mps 750 mmHg 81%
01:00 +21°C° 0.1 mm 1 mps 750 mmHg 83%
02:00 +21°C° 0 mm 1 mps 750 mmHg 83%
03:00 +21°C° 0 mm 1 mps 749 mmHg 83%
04:00 +20°C° 0 mm 2 mps 749 mmHg 82%
05:00 +23°C° 0 mm 2 mps 749 mmHg 78%
06:00 +24°C° 0 mm 2 mps 749 mmHg 74%
07:00 +26°C° 0 mm 2 mps 749 mmHg 69%
08:00 +27°C° 0 mm 3 mps 749 mmHg 62%
09:00 +29°C° 0 mm 4 mps 749 mmHg 55%
10:00 +32°C° 0 mm 5 mps 749 mmHg 48%
11:00 +32°C° 0 mm 5 mps 748 mmHg 45%
12:00 +33°C° 0 mm 5 mps 748 mmHg 42%
13:00 +34°C° 0 mm 6 mps 748 mmHg 39%
14:00 +34°C° 0 mm 5 mps 747 mmHg 39%
15:00 +33°C° 0 mm 5 mps 747 mmHg 40%
16:00 +33°C° 0 mm 5 mps 747 mmHg 40%
17:00 +32°C° 0 mm 5 mps 746 mmHg 46%
18:00 +29°C° 0 mm 5 mps 746 mmHg 52%
19:00 +28°C° 0 mm 5 mps 746 mmHg 58%
20:00 +27°C° 0 mm 4 mps 746 mmHg 62%
21:00 +25°C° 0 mm 4 mps 746 mmHg 65%
22:00 +23°C° 0 mm 4 mps 746 mmHg 69%
23:00 +22°C° 0 mm 4 mps 746 mmHg 71%

Day after tomorrow, 21 June, Monday

Time Temperature Precipitation Wind Pressure Humidity
00:00 +22°C° 0 mm 4 mps 746 mmHg 73%
01:00 +21°C° 0 mm 4 mps 746 mmHg 76%
02:00 +21°C° 0 mm 4 mps 745 mmHg 79%
03:00 +20°C° 0 mm 4 mps 745 mmHg 82%
04:00 +20°C° 0 mm 3 mps 745 mmHg 85%
05:00 +21°C° 0 mm 4 mps 745 mmHg 79%
06:00 +23°C° 0 mm 5 mps 745 mmHg 73%
07:00 +26°C° 0 mm 5 mps 745 mmHg 67%
08:00 +27°C° 0 mm 5 mps 745 mmHg 61%
09:00 +29°C° 0 mm 6 mps 745 mmHg 56%
10:00 +30°C° 0 mm 6 mps 745 mmHg 50%
11:00 +32°C° 0 mm 5 mps 744 mmHg 48%
12:00 +32°C° 0 mm 5 mps 744 mmHg 46%
13:00 +33°C° 0 mm 5 mps 744 mmHg 44%
14:00 +30°C° 0.6 mm 4 mps 744 mmHg 53%
15:00 +29°C° 0.6 mm 4 mps 744 mmHg 62%
16:00 +27°C° 0.6 mm 3 mps 744 mmHg 70%
17:00 +26°C° 1.5 mm 3 mps 744 mmHg 77%
18:00 +25°C° 1.5 mm 3 mps 745 mmHg 83%
19:00 +23°C° 1.5 mm 2 mps 745 mmHg 90%
20:00 +21°C° 0.9 mm 2 mps 745 mmHg 93%
21:00 +20°C° 0.9 mm 2 mps 746 mmHg 95%
22:00 +18°C° 0.9 mm 2 mps 746 mmHg 98%
23:00 +18°C° 0.1 mm 2 mps 746 mmHg 98%

22 June, Tuesday

Time Temperature Precipitation Wind Pressure Humidity
00:00 +17°C° 0.1 mm 2 mps 746 mmHg 98%
01:00 +17°C° 0.1 mm 2 mps 746 mmHg 98%
02:00 +17°C° 0 mm 2 mps 746 mmHg 98%
03:00 +16°C° 0 mm 2 mps 747 mmHg 98%
04:00 +16°C° 0 mm 2 mps 747 mmHg 97%
05:00 +17°C° 0 mm 3 mps 747 mmHg 94%
06:00 +17°C° 0 mm 3 mps 748 mmHg 91%
07:00 +18°C° 0 mm 3 mps 748 mmHg 87%
08:00 +19°C° 0 mm 3 mps 749 mmHg 80%
09:00 +21°C° 0 mm 3 mps 749 mmHg 73%
10:00 +23°C° 0 mm 2 mps 749 mmHg 65%
11:00 +24°C° 0 mm 3 mps 749 mmHg 59%
12:00 +26°C° 0 mm 3 mps 749 mmHg 54%
13:00 +27°C° 0 mm 3 mps 749 mmHg 48%
14:00 +27°C° 0 mm 3 mps 749 mmHg 48%
15:00 +27°C° 0 mm 3 mps 750 mmHg 49%
16:00 +26°C° 0 mm 3 mps 750 mmHg 49%
17:00 +25°C° 0 mm 3 mps 750 mmHg 56%
18:00 +22°C° 0 mm 3 mps 750 mmHg 63%
19:00 +20°C° 0 mm 3 mps 750 mmHg 70%
20:00 +18°C° 0 mm 3 mps 751 mmHg 76%
21:00 +16°C° 0 mm 3 mps 751 mmHg 82%
22:00 +15°C° 0 mm 2 mps 751 mmHg 88%
23:00 +14°C° 0 mm 2 mps 751 mmHg 88%

23 June, Wednesday

Time Temperature Precipitation Wind Pressure Humidity
00:00 +14°C° 0 mm 2 mps 751 mmHg 88%
01:00 +14°C° 0 mm 1 mps 751 mmHg 88%
02:00 +14°C° 0 mm 1 mps 751 mmHg 87%
03:00 +14°C° 0 mm 1 mps 751 mmHg 86%
04:00 +14°C° 0 mm 1 mps 751 mmHg 86%
05:00 +16°C° 0 mm 2 mps 751 mmHg 77%
06:00 +18°C° 0 mm 2 mps 751 mmHg 69%
07:00 +20°C° 0 mm 3 mps 751 mmHg 61%
08:00 +22°C° 0 mm 3 mps 751 mmHg 57%
09:00 +25°C° 0 mm 3 mps 751 mmHg 52%
10:00 +27°C° 0 mm 3 mps 750 mmHg 47%
11:00 +28°C° 0 mm 3 mps 750 mmHg 45%
12:00 +29°C° 0 mm 4 mps 750 mmHg 44%
13:00 +32°C° 0 mm 4 mps 750 mmHg 42%
14:00 +32°C° 0 mm 4 mps 749 mmHg 44%
15:00 +32°C° 0 mm 4 mps 749 mmHg 45%
16:00 +32°C° 0 mm 4 mps 749 mmHg 46%
17:00 +30°C° 0 mm 4 mps 749 mmHg 52%
18:00 +29°C° 0 mm 3 mps 748 mmHg 58%
19:00 +28°C° 0 mm 3 mps 748 mmHg 64%
20:00 +27°C° 0.1 mm 3 mps 748 mmHg 70%
21:00 +25°C° 0.1 mm 3 mps 748 mmHg 76%
22:00 +23°C° 0.1 mm 4 mps 748 mmHg 82%
23:00 +22°C° 1.2 mm 3 mps 748 mmHg 86%

24 June, Thursday

Time Temperature Precipitation Wind Pressure Humidity
00:00 +21°C° 1.2 mm 3 mps 748 mmHg 89%
01:00 +21°C° 1.2 mm 3 mps 748 mmHg 93%
02:00 +20°C° 0.2 mm 4 mps 748 mmHg 94%
03:00 +19°C° 0.2 mm 4 mps 747 mmHg 94%
04:00 +19°C° 0.2 mm 4 mps 747 mmHg 95%
05:00 +17°C° 0 mm 5 mps 747 mmHg 95%
06:00 +17°C° 0 mm 5 mps 747 mmHg 95%
07:00 +16°C° 0 mm 6 mps 748 mmHg 95%
08:00 +16°C° 0 mm 6 mps 748 mmHg 90%
09:00 +16°C° 0 mm 6 mps 749 mmHg 86%
10:00 +16°C° 0 mm 7 mps 750 mmHg 82%
11:00 +18°C° 0 mm 7 mps 751 mmHg 73%
12:00 +21°C° 0 mm 7 mps 751 mmHg 64%
13:00 +23°C° 0 mm 6 mps 751 mmHg 56%
14:00 +23°C° 0 mm 6 mps 752 mmHg 53%
15:00 +25°C° 0 mm 5 mps 752 mmHg 50%
16:00 +25°C° 0 mm 5 mps 752 mmHg 47%
17:00 +23°C° 0 mm 4 mps 752 mmHg 51%
18:00 +22°C° 0 mm 3 mps 752 mmHg 55%
19:00 +21°C° 0 mm 3 mps 752 mmHg 59%
20:00 +20°C° 0 mm 2 mps 752 mmHg 64%
21:00 +19°C° 0 mm 2 mps 752 mmHg 69%
22:00 +17°C° 0 mm 2 mps 752 mmHg 73%
23:00 +17°C° 0 mm 2 mps 753 mmHg 77%
Show more